Location: *
(43.2048°N, 0.1612°E)
Time: 18:02:47
(UTC+00:00)

CZ-2C R/B - Pass Details

Date: 30 September 2023
Orbit: 666 x 780 km, 98.3° (Epoch: 04 December)

Event Time Altitude Azimuth Distance (km) Brightness Sun altitude
Rises 04:27:01 0° 3° (N) 3,142 5.9 -16.8°
Reaches altitude 10° 04:29:34 10° 352° (N) 2,197 4.9 -16.3°
Maximum altitude 04:33:38 28° 294° (WNW) 1,289 3.2 -15.6°
Enters shadow 04:34:51 25° 268° (W) 1,386 3.2 -15.4°
